Location: Bishopstone
(51.0167°N, 1.9000°W)
Time: 02:52:36
(UTC+00:00)

Meteor 1-4 Rocket - Pass Details

Date: 16 September 2019
Orbit: 449 x 504 km, 81.2° (Epoch: 18 October)

Event Time Altitude Azimuth Distance (km) Brightness Sun altitude
Rises 20:42:20 0° 341° (NNW) 2,543 7.1 -21.7°
Reaches altitude 10° 20:44:32 10° 334° (NNW) 1,649 6.1 -22.0°
Maximum altitude 20:47:54 39° 265° (W) 721 3.7 -22.4°
Enters shadow 20:48:45 33° 230° (SW) 810 3.7 -22.5°
